Regional Weather Roundup
Issued by NWS

Home | Current Version | Previous Version | Text Only | Print | Product List | Glossary On
Versions: 1 2 3 4 5 6 7 8 9 10 11 12 13 14 15 16 17 18 19 20 21 22 23 24 25 26 27 28 29 30 31 32 33 34 35 36 37 38 39 40 41 42 43 44 45 46 47 48 49 50
000
ASUS43 KTOP 171408
RWRKS

WEATHER ROUNDUP FOR KANSAS
NATIONAL WEATHER SERVICE GOODLAND KS
900 AM CDT TUE OCT 17 2017

NOTE:  "FAIR" INDICATES FEW OR NO CLOUDS BELOW 12,000 FEET WITH NO
SIGNIFICANT WEATHER AND/OR OBSTRUCTIONS TO VISIBILITY.

KSZ001>006-013>018-027>032-041>047-171500-
NORTHWEST KANSAS

CITY           SKY/WX    TMP DP  RH WIND       PRES   REMARKS
GOODLAND       CLOUDY    43  31  62 W3        30.18R
HAYS           SUNNY     42  38  85 SW5       30.14R
HILL CITY      SUNNY     47  37  68 NW5       30.14R
RUSSELL        SUNNY     44  40  85 S10       30.12R
$$

KSZ061>065-074>080-084>089-171500-
SOUTHWEST KANSAS

CITY           SKY/WX    TMP DP  RH WIND       PRES   REMARKS
DODGE CITY     SUNNY     47  36  65 SW13      30.16R
ELKHART          N/A     46  35  65 NW7         N/A
GARDEN CITY    CLOUDY    40  37  89 W3        30.15R
GREAT BEND     SUNNY     47  38  71 SW9       30.15R
LIBERAL        CLOUDY    41  38  89 S5        30.17S
PRATT          SUNNY     47  38  71 S8        30.16R
$$

KSZ066>073-081>083-090>101-171500-
SOUTHEAST KANSAS

CITY           SKY/WX    TMP DP  RH WIND       PRES   REMARKS
CHANUTE        SUNNY     52  44  74 S6        30.26R
COFFEYVILLE    MOSUNNY   50  46  86 S5        30.27R
HUTCHINSON     SUNNY     52  43  71 S8        30.17R
MEDICINE LODGE   N/A     48  40  73 SE5       30.19R
NEWTON         SUNNY     53  41  63 S13       30.19R
PARSONS        SUNNY     52  45  77 S6        30.28R
WICHITA INTL   MOSUNNY   52  43  71 S14       30.19R
WICHITA JABRA  SUNNY     54  42  64 S9        30.19R
WICHITA MCCONL SUNNY     53  40  60 SW15      30.20R
WINFIELD       SUNNY     52  44  74 S12       30.23R
$$

KSZ007>012-019>026-033>040-048>060-102>105-171500-
NORTHEAST KANSAS

CITY           SKY/WX    TMP DP  RH WIND       PRES   REMARKS
CONCORDIA      SUNNY     52  41  66 SW8       30.12R
EMPORIA        SUNNY     51  40  65 S12       30.21R
LAWRENCE       SUNNY     51  44  77 E6        30.22S
MANHATTAN      SUNNY     54  43  66 S8        30.16R
MARYSVILLE     SUNNY     54  43  66 S8        30.14R
OLATHE IND     SUNNY     50  42  74 S12       30.23S
OLATHE EXE     SUNNY     51  42  71 S9        30.23S
SALINA         SUNNY     53  43  68 S8        30.16R
TOPEKA BILLARD SUNNY     54  43  66 S5        30.19S
TOPEKA FORBES  SUNNY     55  42  61 S14G23    30.19S
$$



USA.gov is the U.S. government's official web portal to all federal, state and local government web resources and services.